Terug naar catalogus

STARLINK-5575

ActiefCommunicatieVLEO
NORAD 55381·PAYLOAD·🇺🇸 United States

Gelanceerd Jan 26, 2023 vanaf Cape Canaveral Space Force Station

Loading…

Volgende Passages (komende 24 uur)

TLE

VersSource: CelesTrak SupGP

Epoch: Sep 15, 2026, 01:37 UTC

1 55381C 23013BC  26258.06784722  .00026687  00000+0  96662-3 0  2588
2 55381  43.0024 328.8584 0001944 269.5497  70.6124 15.27563682    11

Volg STARLINK-5575 in realtime met AllMySat

Download on the App Store